Location: Madrid
(40.4000°N, 3.6830°W)
Time: 00:23:03
(UTC+02:00)

ISS - Pass Details

Date: 18 July 2019
Orbit: 409 x 418 km, 51.6° (Epoch: 22 July)

Event Time Altitude Azimuth Distance (km) Brightness Sun altitude
Rises 01:25:42 0° 287° (WNW) 2,349 0.5 -27.2°
Reaches altitude 10° 01:28:33 10° 314° (NW) 1,486 -0.3 -27.3°
Maximum altitude 01:30:26 14° 348° (NNW) 1,257 -0.5 -27.4°
Drops below altitude 10° 01:32:19 10° 23° (NNE) 1,484 -0.3 -27.5°
Sets 01:35:10 0° 49° (NE) 2,346 0.4 -27.6°
